Simultaneous Nadir Overpasses (SNOs) Predictions

Prediction of SNOs between GOES-15 and TERRA Satellite Orbit:

Table of predicted SNOs for the next 14.0 days since TLE Epoch: 6/29/2024
Index Date Time (GOES-15) GOES-15 Lat,Lon TERRA Lat,Lon Distance(km) Time Diff (sec)
1 06/29/2024 05:50:52 -0.11, 61.18 0.29, 59.22 222.29 80
2 07/01/2024 05:30:45 -0.13, 61.17 -0.62, 63.43 257.02 80
3 07/01/2024 17:53:26 0.09, 61.21 -0.48, 58.57 300.97 80
4 07/03/2024 17:33:18 0.11, 61.21 0.42, 62.78 177.99 80
5 07/04/2024 05:55:52 -0.07, 61.16 0.62, 57.94 365.76 80
6 07/06/2024 05:35:44 -0.10, 61.16 -0.30, 62.15 112.69 80
7 07/06/2024 17:58:25 0.06, 61.21 -0.77, 57.29 445.62 80
8 07/08/2024 17:38:16 0.09, 61.21 0.13, 61.50 33.23 80
9 07/11/2024 05:43:20 -0.07, 61.15 0.02, 60.89 31.23 80
